Location: DARK SKY Beskydy - Park tmavé oblohy, www.darkskybeskydy.cz
(49.4926°N, 18.5016°E)
Time: 11:01:29
(UTC+02:00)

BlueWalker 3 - Pass Details

Date: 22 June 2024
Orbit: 480 x 491 km, 53.2° (Epoch: 23 July)

Event Time Altitude Azimuth Distance (km) Brightness Sun altitude
Rises 22:05:00 0° 251° (WSW) 2,536 5.8 -8.6°
Reaches altitude 10° 22:07:10 10° 253° (WSW) 1,656 4.8 -8.8°
Maximum altitude 22:10:54 75° 339° (NNW) 503 2.1 -9.1°
Drops below altitude 10° 22:14:39 10° 66° (ENE) 1,658 4.5 -9.5°
Sets 22:16:49 0° 68° (ENE) 2,538 5.4 -9.7°
